| time (UTC) | temp F | wind direction | speed MPH | gust MPH | rain 1hr in | rain 24hr in | rain mn in | humidity % | barometer mb |
| 20260506173252 | 70 | 44 | 4.0 | 8.0 | 0.00 | 0.05 | 0.05 | 85 | 1009.8 |
| 20260506172748 | 68 | 115 | 0.0 | 2.0 | 0.00 | 0.05 | 0.05 | 88 | 1009.8 |
| 20260506172245 | 68 | 86 | 2.0 | 2.0 | 0.00 | 0.05 | 0.05 | 90 | 1010.0 |
| 20260506171743 | 67 | 79 | 2.0 | 3.0 | 0.00 | 0.05 | 0.05 | 92 | 1010.0 |
| 20260506171240 | 65 | 100 | 2.0 | 5.0 | 0.00 | 0.05 | 0.05 | 93 | 1010.1 |
| 20260506170738 | 65 | 91 | 2.0 | 3.0 | 0.00 | 0.05 | 0.05 | 95 | 1009.8 |
| 20260506170234 | 64 | 94 | 9.0 | 11.0 | 0.00 | 0.05 | 0.05 | 95 | 1009.9 |
| 20260506165732 | 64 | 74 | 5.0 | 7.0 | 0.00 | 0.05 | 0.05 | 96 | 1010.2 |
| 20260506165229 | 64 | 69 | 4.0 | 6.0 | 0.00 | 0.05 | 0.05 | 96 | 1010.1 |
| 20260506164726 | 64 | 84 | 1.0 | 2.0 | 0.00 | 0.05 | 0.05 | 96 | 1010.6 |
| 20260506164223 | 63 | 336 | 5.0 | 7.0 | 0.00 | 0.05 | 0.05 | 96 | 1010.5 |
| 20260506163720 | 63 | 120 | 3.0 | 5.0 | 0.00 | 0.05 | 0.05 | 96 | 1010.5 |
| 20260506163215 | 63 | 69 | 3.0 | 5.0 | 0.00 | 0.05 | 0.05 | 96 | 1010.8 |
| 20260506162711 | 63 | 84 | 0.0 | 0.0 | 0.00 | 0.05 | 0.05 | 95 | 1011.3 |
| 20260506162209 | 63 | 91 | 0.0 | 0.0 | 0.00 | 0.05 | 0.05 | 95 | 1011.3 |
| 20260506161706 | 64 | 308 | 7.0 | 10.0 | 0.07 | 0.05 | 0.05 | 95 | 1011.3 |
| 20260506161203 | 64 | 104 | 2.0 | 3.0 | 0.14 | 0.05 | 0.05 | 94 | 1011.2 |
| 20260506160700 | 65 | 63 | 5.0 | 9.0 | 0.19 | 0.04 | 0.04 | 94 | 1011.2 |
| 20260506160157 | 65 | 94 | 5.0 | 8.0 | 0.17 | 0.03 | 0.03 | 94 | 1011.1 |
| 20260506155655 | 66 | 348 | 6.0 | 9.0 | 0.05 | 0.01 | 0.01 | 93 | 1011.2 |
| 20260506155152 | 67 | 2 | 5.0 | 8.0 | 0.00 | 0.00 | 0.00 | 92 | 1011.0 |
| 20260506153254 | 70 | 357 | 5.0 | 10.0 | 0.00 | 0.00 | 0.00 | 89 | 1010.2 |
| 20260506152751 | 77 | 3 | 8.0 | 9.0 | 0.00 | 0.00 | 0.00 | 89 | 1010.1 |
| 20260506152248 | 77 | 107 | 3.0 | 3.0 | 0.00 | 0.00 | 0.00 | 91 | 1009.7 |
| 20260506151747 | 77 | 107 | 2.0 | 3.0 | 0.00 | 0.00 | 0.00 | 91 | 1009.3 |
| 20260506151243 | 77 | 128 | 0.0 | 0.0 | 0.00 | 0.00 | 0.00 | 91 | 1009.5 |
| 20260506150740 | 77 | 134 | 0.0 | 0.0 | 0.00 | 0.00 | 0.00 | 91 | 1009.3 |
| 20260506150237 | 77 | 158 | 0.0 | 0.0 | 0.00 | 0.00 | 0.00 | 90 | 1009.3 |
| 20260506145734 | 77 | 92 | 0.0 | 0.0 | 0.00 | 0.00 | 0.00 | 90 | 1009.1 |
| 20260506145230 | 77 | 129 | 0.0 | 0.0 | 0.00 | 0.00 | 0.00 | 90 | 1008.9 |
| 20260506144728 | 77 | 117 | 0.0 | 2.0 | 0.00 | 0.00 | 0.00 | 90 | 1008.6 |
| 20260506144225 | 77 | 134 | 0.0 | 0.0 | 0.00 | 0.00 | 0.00 | 90 | 1008.6 |
| 20260506143722 | 78 | 109 | 1.0 | 3.0 | 0.00 | 0.00 | 0.00 | 90 | 1008.6 |
| 20260506143220 | 78 | 123 | 0.0 | 0.0 | 0.00 | 0.00 | 0.00 | 90 | 1008.1 |
| 20260506142718 | 78 | 156 | 2.0 | 2.0 | 0.00 | 0.00 | 0.00 | 90 | 1008.5 |
| 20260506142216 | 77 | 159 | 0.0 | 1.0 | 0.00 | 0.00 | 0.00 | 90 | 1008.1 |
| 20260506141714 | 77 | 105 | 0.0 | 0.0 | 0.00 | 0.00 | 0.00 | 91 | 1007.8 |
| 20260506141212 | 77 | 115 | 0.0 | 0.0 | 0.00 | 0.00 | 0.00 | 92 | 1008.2 |
| 20260506140709 | 77 | 134 | 0.0 | 0.0 | 0.00 | 0.00 | 0.00 | 92 | 1008.6 |
| 20260506140206 | 77 | 147 | 0.0 | 0.0 | 0.00 | 0.00 | 0.00 | 92 | 1008.6 |
| 20260506135703 | 77 | 137 | 0.0 | 0.0 | 0.00 | 0.00 | 0.00 | 93 | 1008.6 |
| 20260506135159 | 77 | 147 | 0.0 | 0.0 | 0.00 | 0.00 | 0.00 | 93 | 1008.2 |
| 20260506134656 | 76 | 152 | 0.0 | 0.0 | 0.00 | 0.00 | 0.00 | 93 | 1007.7 |
| 20260506134152 | 76 | 133 | 0.0 | 0.0 | 0.00 | 0.00 | 0.00 | 93 | 1007.6 |
| 20260506133649 | 76 | 114 | 0.0 | 0.0 | 0.00 | 0.00 | 0.00 | 93 | 1008.0 |
| 20260506133146 | 76 | 83 | 1.0 | 2.0 | 0.00 | 0.00 | 0.00 | 93 | 1008.0 |
| 20260506132643 | 76 | 131 | 0.0 | 1.0 | 0.00 | 0.00 | 0.00 | 94 | 1007.7 |
| 20260506132140 | 76 | 141 | 0.0 | 0.0 | 0.00 | 0.00 | 0.00 | 94 | 1007.8 |
| 20260506131638 | 76 | 144 | 0.0 | 0.0 | 0.00 | 0.00 | 0.00 | 94 | 1007.7 |
| 20260506131133 | 75 | 172 | 0.0 | 1.0 | 0.00 | 0.00 | 0.00 | 94 | 1007.7 |
| 20260506130630 | 75 | 153 | 0.0 | 0.0 | 0.00 | 0.00 | 0.00 | 94 | 1007.5 |
| 20260506130128 | 75 | 122 | 0.0 | 0.0 | 0.00 | 0.00 | 0.00 | 94 | 1007.5 |
| 20260506125626 | 75 | 164 | 0.0 | 0.0 | 0.00 | 0.00 | 0.00 | 94 | 1007.4 |
| 20260506125123 | 75 | 135 | 0.0 | 0.0 | 0.00 | 0.00 | 0.00 | 94 | 1007.4 |
| 20260506124621 | 75 | 203 | 0.0 | 1.0 | 0.00 | 0.00 | 0.00 | 94 | 1007.4 |
| 20260506124119 | 75 | 132 | 0.0 | 0.0 | 0.00 | 0.00 | 0.00 | 94 | 1007.2 |
| 20260506123616 | 75 | 132 | 0.0 | 0.0 | 0.00 | 0.00 | 0.00 | 94 | 1007.3 |
| 20260506123115 | 75 | 128 | 0.0 | 0.0 | 0.00 | 0.00 | 0.00 | 94 | 1007.4 |
| 20260506122611 | 75 | 133 | 0.0 | 0.0 | 0.00 | 0.00 | 0.00 | 94 | 1007.4 |
| 20260506122109 | 75 | 133 | 0.0 | 0.0 | 0.00 | 0.00 | 0.00 | 94 | 1007.6 |
| 20260506121606 | 75 | 142 | 0.0 | 0.0 | 0.00 | 0.00 | 0.00 | 94 | 1007.4 |
| 20260506121102 | 75 | 132 | 0.0 | 0.0 | 0.00 | 0.00 | 0.00 | 94 | 1007.4 |
| 20260506120601 | 75 | 146 | 0.0 | 0.0 | 0.00 | 0.00 | 0.00 | 94 | 1007.4 |
| 20260506120057 | 75 | 107 | 0.0 | 0.0 | 0.00 | 0.00 | 0.00 | 93 | 1007.3 |
| 20260506115556 | 75 | 139 | 0.0 | 0.0 | 0.00 | 0.00 | 0.00 | 93 | 1007.3 |
| 20260506115054 | 75 | 138 | 0.0 | 0.0 | 0.00 | 0.00 | 0.00 | 93 | 1007.1 |
| 20260506114551 | 75 | 145 | 0.0 | 0.0 | 0.00 | 0.00 | 0.00 | 93 | 1007.4 |
| 20260506114049 | 75 | 151 | 0.0 | 0.0 | 0.00 | 0.00 | 0.00 | 93 | 1007.4 |
| 20260506113547 | 75 | 141 | 0.0 | 0.0 | 0.00 | 0.00 | 0.00 | 93 | 1007.5 |
| 20260506113044 | 75 | 191 | 1.0 | 2.0 | 0.00 | 0.00 | 0.00 | 93 | 1007.5 |
| 20260506112540 | 75 | 147 | 0.0 | 0.0 | 0.00 | 0.00 | 0.00 | 93 | 1007.2 |
| 20260506112038 | 75 | 149 | 0.0 | 0.0 | 0.00 | 0.00 | 0.00 | 93 | 1007.6 |
| 20260506111535 | 75 | 195 | 1.0 | 3.0 | 0.00 | 0.00 | 0.00 | 93 | 1007.5 |
| 20260506111032 | 75 | 176 | 2.0 | 3.0 | 0.00 | 0.00 | 0.00 | 93 | 1007.2 |
| 20260506110530 | 75 | 188 | 3.0 | 3.0 | 0.00 | 0.00 | 0.00 | 93 | 1007.3 |
| 20260506110027 | 75 | 156 | 0.0 | 0.0 | 0.00 | 0.00 | 0.00 | 93 | 1007.3 |
| 20260506105523 | 75 | 156 | 0.0 | 0.0 | 0.00 | 0.00 | 0.00 | 93 | 1007.1 |
| 20260506105021 | 75 | 161 | 0.0 | 1.0 | 0.00 | 0.00 | 0.00 | 93 | 1007.2 |
| 20260506104519 | 75 | 163 | 0.0 | 0.0 | 0.00 | 0.00 | 0.00 | 93 | 1007.3 |
| 20260506104016 | 75 | 142 | 0.0 | 0.0 | 0.00 | 0.00 | 0.00 | 93 | 1007.2 |
| 20260506103513 | 75 | 183 | 3.0 | 6.0 | 0.00 | 0.00 | 0.00 | 93 | 1007.1 |
| 20260506103010 | 75 | 170 | 0.0 | 0.0 | 0.00 | 0.00 | 0.00 | 93 | 1006.8 |
| 20260506102508 | 75 | 137 | 0.0 | 0.0 | 0.00 | 0.00 | 0.00 | 93 | 1006.9 |
| 20260506102005 | 75 | 140 | 0.0 | 0.0 | 0.00 | 0.00 | 0.00 | 93 | 1007.0 |
| 20260506101502 | 75 | 127 | 0.0 | 1.0 | 0.00 | 0.00 | 0.00 | 93 | 1006.9 |
| 20260506100959 | 75 | 190 | 3.0 | 7.0 | 0.00 | 0.00 | 0.00 | 93 | 1006.8 |
| 20260506100457 | 75 | 181 | 1.0 | 1.0 | 0.00 | 0.00 | 0.00 | 93 | 1006.8 |
| 20260506095955 | 75 | 175 | 3.0 | 3.0 | 0.00 | 0.00 | 0.00 | 94 | 1006.6 |
| 20260506095454 | 75 | 191 | 3.0 | 3.0 | 0.00 | 0.00 | 0.00 | 94 | 1006.7 |
| 20260506094949 | 75 | 155 | 0.0 | 0.0 | 0.00 | 0.00 | 0.00 | 94 | 1006.7 |
| 20260506094448 | 75 | 157 | 1.0 | 2.0 | 0.00 | 0.00 | 0.00 | 94 | 1006.6 |
| 20260506093945 | 75 | 189 | 5.0 | 6.0 | 0.00 | 0.00 | 0.00 | 94 | 1006.4 |
| 20260506093443 | 75 | 172 | 1.0 | 2.0 | 0.00 | 0.00 | 0.00 | 94 | 1006.3 |
| 20260506092940 | 75 | 177 | 3.0 | 5.0 | 0.00 | 0.00 | 0.00 | 94 | 1006.4 |
| 20260506092438 | 75 | 144 | 1.0 | 2.0 | 0.00 | 0.00 | 0.00 | 94 | 1006.3 |
| 20260506091934 | 75 | 191 | 3.0 | 5.0 | 0.00 | 0.00 | 0.00 | 94 | 1006.3 |
| 20260506091433 | 75 | 168 | 6.0 | 7.0 | 0.00 | 0.00 | 0.00 | 94 | 1006.2 |
| 20260506090930 | 75 | 154 | 0.0 | 0.0 | 0.00 | 0.00 | 0.00 | 94 | 1006.0 |
| 20260506090427 | 75 | 186 | 3.0 | 5.0 | 0.00 | 0.00 | 0.00 | 94 | 1005.9 |
| 20260506085924 | 75 | 186 | 4.0 | 7.0 | 0.00 | 0.00 | 0.00 | 94 | 1006.0 |
| 20260506085420 | 75 | 142 | 5.0 | 7.0 | 0.00 | 0.00 | 0.00 | 94 | 1006.0 |
| 20260506084917 | 75 | 182 | 10.0 | 11.0 | 0.00 | 0.00 | 0.00 | 94 | 1006.1 |
| 20260506084414 | 75 | 189 | 3.0 | 8.0 | 0.00 | 0.00 | 0.00 | 94 | 1006.2 |
| 20260506083910 | 75 | 155 | 5.0 | 6.0 | 0.00 | 0.00 | 0.00 | 93 | 1005.9 |
| 20260506083408 | 75 | 196 | 7.0 | 9.0 | 0.00 | 0.00 | 0.00 | 93 | 1006.1 |
| 20260506082905 | 75 | 201 | 7.0 | 9.0 | 0.00 | 0.00 | 0.00 | 93 | 1006.0 |
| 20260506082401 | 75 | 192 | 4.0 | 7.0 | 0.00 | 0.00 | 0.00 | 93 | 1006.1 |
| 20260506081857 | 75 | 180 | 6.0 | 7.0 | 0.00 | 0.00 | 0.00 | 93 | 1006.0 |
| 20260506081355 | 75 | 177 | 3.0 | 5.0 | 0.00 | 0.00 | 0.00 | 93 | 1006.1 |
| 20260506080853 | 75 | 189 | 9.0 | 11.0 | 0.00 | 0.00 | 0.00 | 93 | 1006.2 |
| 20260506080349 | 75 | 163 | 6.0 | 8.0 | 0.00 | 0.00 | 0.00 | 93 | 1006.1 |
| 20260506073333 | 75 | 168 | 2.0 | 5.0 | 0.00 | 0.00 | 0.00 | 93 | 1006.1 |
| 20260506072824 | 75 | 183 | 8.0 | 10.0 | 0.00 | 0.00 | 0.00 | 93 | 1006.4 |
| 20260506072322 | 75 | 195 | 3.0 | 5.0 | 0.00 | 0.00 | 0.00 | 93 | 1006.7 |
| 20260506071820 | 75 | 174 | 7.0 | 10.0 | 0.00 | 0.00 | 0.00 | 93 | 1006.6 |
| 20260506071318 | 75 | 195 | 1.0 | 8.0 | 0.00 | 0.00 | 0.00 | 93 | 1006.5 |
| 20260506070814 | 75 | 196 | 5.0 | 7.0 | 0.00 | 0.00 | 0.00 | 93 | 1006.5 |
| 20260506070311 | 75 | 165 | 4.0 | 6.0 | 0.00 | 0.00 | 0.00 | 93 | 1006.5 |
| 20260506062248 | 76 | 170 | 5.0 | 7.0 | 0.00 | 0.00 | 0.00 | 92 | 1006.7 |
| 20260506061744 | 76 | 168 | 8.0 | 10.0 | 0.00 | 0.00 | 0.00 | 92 | 1006.6 |
| 20260506061241 | 76 | 143 | 8.0 | 11.0 | 0.00 | 0.00 | 0.00 | 92 | 1006.6 |
| 20260506060740 | 76 | 175 | 6.0 | 10.0 | 0.00 | 0.00 | 0.00 | 93 | 1006.8 |
| 20260506060237 | 76 | 192 | 6.0 | 7.0 | 0.00 | 0.00 | 0.00 | 93 | 1006.5 |
| 20260506051209 | 76 | 176 | 7.0 | 10.0 | 0.00 | 0.00 | 0.00 | 92 | 1006.8 |
| 20260506050707 | 76 | 198 | 7.0 | 9.0 | 0.00 | 0.00 | 0.00 | 92 | 1006.9 |
| 20260506050204 | 76 | 135 | 0.0 | 1.0 | 0.00 | 0.00 | 0.00 | 92 | 1006.9 |
| 20260506044655 | 76 | 173 | 4.0 | 6.0 | 0.00 | 0.00 | 0.00 | 91 | 1007.1 |
| 20260506044151 | 77 | 170 | 2.0 | 3.0 | 0.00 | 0.00 | 0.00 | 91 | 1007.1 |
| 20260506043649 | 77 | 117 | 3.0 | 3.0 | 0.00 | 0.00 | 0.00 | 91 | 1007.0 |
| 20260506043147 | 77 | 151 | 7.0 | 11.0 | 0.00 | 0.00 | 0.00 | 91 | 1006.8 |
| 20260506042646 | 77 | 187 | 2.0 | 3.0 | 0.00 | 0.00 | 0.00 | 91 | 1006.9 |
| 20260506042143 | 77 | 210 | 4.0 | 7.0 | 0.00 | 0.00 | 0.00 | 90 | 1006.9 |
| 20260506041642 | 77 | 151 | 3.0 | 5.0 | 0.00 | 0.00 | 0.00 | 90 | 1006.9 |
| 20260506041138 | 77 | 161 | 3.0 | 5.0 | 0.00 | 0.00 | 0.00 | 90 | 1006.6 |
| 20260506040635 | 77 | 208 | 3.0 | 5.0 | 0.00 | 0.00 | 0.00 | 90 | 1006.7 |
| 20260506040132 | 77 | 180 | 6.0 | 8.0 | 0.00 | 0.00 | 0.00 | 90 | 1006.6 |
| 20260506035629 | 77 | 163 | 6.0 | 7.0 | 0.00 | 0.00 | 0.00 | 90 | 1006.6 |
| 20260506035126 | 77 | 169 | 5.0 | 7.0 | 0.00 | 0.00 | 0.00 | 89 | 1006.3 |
| 20260506034623 | 77 | 181 | 1.0 | 3.0 | 0.00 | 0.00 | 0.00 | 89 | 1006.5 |
| 20260506034120 | 77 | 179 | 4.0 | 8.0 | 0.00 | 0.00 | 0.00 | 89 | 1006.5 |
| 20260506033617 | 77 | 187 | 2.0 | 2.0 | 0.00 | 0.00 | 0.00 | 89 | 1006.5 |
| 20260506033114 | 77 | 183 | 7.0 | 10.0 | 0.00 | 0.00 | 0.00 | 89 | 1006.4 |
| 20260506032612 | 78 | 147 | 1.0 | 2.0 | 0.00 | 0.00 | 0.00 | 88 | 1006.2 |
| 20260506032108 | 78 | 159 | 0.0 | 0.0 | 0.00 | 0.00 | 0.00 | 88 | 1006.5 |
| 20260506031605 | 78 | 168 | 4.0 | 5.0 | 0.00 | 0.00 | 0.00 | 88 | 1006.2 |
| 20260506031102 | 78 | 140 | 3.0 | 3.0 | 0.00 | 0.00 | 0.00 | 88 | 1006.1 |
| 20260506030601 | 78 | 165 | 0.0 | 0.0 | 0.00 | 0.00 | 0.00 | 88 | 1006.0 |
| 20260506030057 | 78 | 191 | 5.0 | 7.0 | 0.00 | 0.00 | 0.00 | 88 | 1006.1 |
| 20260506025554 | 78 | 150 | 0.0 | 0.0 | 0.00 | 0.00 | 0.00 | 88 | 1006.0 |
| 20260506025050 | 78 | 188 | 6.0 | 8.0 | 0.00 | 0.00 | 0.00 | 88 | 1005.7 |
| 20260506024548 | 78 | 115 | 1.0 | 2.0 | 0.00 | 0.00 | 0.00 | 87 | 1005.8 |
| 20260506024044 | 78 | 168 | 1.0 | 5.0 | 0.00 | 0.00 | 0.00 | 87 | 1005.7 |
| 20260506023540 | 78 | 182 | 4.0 | 5.0 | 0.00 | 0.00 | 0.00 | 86 | 1005.5 |
| 20260506023038 | 79 | 165 | 3.0 | 3.0 | 0.00 | 0.00 | 0.00 | 86 | 1005.3 |
| 20260506022535 | 79 | 157 | 1.0 | 2.0 | 0.00 | 0.00 | 0.00 | 85 | 1005.2 |
| 20260506022032 | 79 | 205 | 2.0 | 3.0 | 0.00 | 0.00 | 0.00 | 84 | 1005.1 |
| 20260506021530 | 79 | 120 | 0.0 | 0.0 | 0.00 | 0.00 | 0.00 | 84 | 1004.8 |
| 20260506021027 | 79 | 141 | 1.0 | 2.0 | 0.00 | 0.00 | 0.00 | 83 | 1004.7 |
| 20260506020525 | 80 | 184 | 1.0 | 3.0 | 0.00 | 0.00 | 0.00 | 83 | 1004.8 |
| 20260506020022 | 80 | 117 | 3.0 | 6.0 | 0.00 | 0.00 | 0.00 | 82 | 1004.7 |
| 20260506015519 | 80 | 130 | 1.0 | 3.0 | 0.00 | 0.00 | 0.00 | 82 | 1004.8 |
| 20260506015016 | 80 | 157 | 1.0 | 1.0 | 0.00 | 0.00 | 0.00 | 82 | 1004.8 |
| 20260506014514 | 80 | 177 | 1.0 | 2.0 | 0.00 | 0.00 | 0.00 | 82 | 1004.6 |
| 20260506014009 | 80 | 172 | 1.0 | 3.0 | 0.00 | 0.00 | 0.00 | 81 | 1004.5 |
| 20260506013507 | 80 | 168 | 0.0 | 0.0 | 0.00 | 0.00 | 0.00 | 81 | 1004.8 |
| 20260506013004 | 81 | 164 | 0.0 | 1.0 | 0.00 | 0.00 | 0.00 | 81 | 1004.6 |
| 20260506012500 | 81 | 172 | 2.0 | 6.0 | 0.00 | 0.00 | 0.00 | 81 | 1004.5 |
| 20260506011957 | 81 | 171 | 2.0 | 3.0 | 0.00 | 0.00 | 0.00 | 80 | 1004.6 |
| 20260506011454 | 81 | 142 | 0.0 | 0.0 | 0.00 | 0.00 | 0.00 | 79 | 1004.6 |
| 20260506010951 | 82 | 149 | 0.0 | 0.0 | 0.00 | 0.00 | 0.00 | 79 | 1004.6 |
| 20260506010450 | 82 | 130 | 0.0 | 1.0 | 0.00 | 0.00 | 0.00 | 78 | 1004.7 |
| 20260506005945 | 82 | 151 | 2.0 | 5.0 | 0.00 | 0.00 | 0.00 | 78 | 1004.6 |
| 20260506005443 | 82 | 152 | 0.0 | 0.0 | 0.00 | 0.00 | 0.00 | 78 | 1004.6 |
| 20260506004938 | 82 | 157 | 0.0 | 1.0 | 0.00 | 0.00 | 0.00 | 77 | 1004.7 |
| 20260506004437 | 82 | 157 | 1.0 | 2.0 | 0.00 | 0.00 | 0.00 | 77 | 1004.6 |
| 20260506003932 | 82 | 169 | 2.0 | 3.0 | 0.00 | 0.00 | 0.00 | 77 | 1004.7 |
| 20260506003429 | 82 | 133 | 0.0 | 1.0 | 0.00 | 0.00 | 0.00 | 77 | 1004.6 |
| 20260506002926 | 82 | 186 | 4.0 | 5.0 | 0.00 | 0.00 | 0.00 | 77 | 1004.5 |
| 20260506002422 | 82 | 133 | 0.0 | 0.0 | 0.00 | 0.00 | 0.00 | 77 | 1004.6 |
| 20260506001917 | 82 | 160 | 3.0 | 5.0 | 0.00 | 0.00 | 0.00 | 77 | 1004.4 |
| 20260506001415 | 82 | 150 | 4.0 | 5.0 | 0.00 | 0.00 | 0.00 | 77 | 1004.6 |
| 20260506000912 | 83 | 133 | 4.0 | 5.0 | 0.00 | 0.00 | 0.00 | 77 | 1004.4 |
| 20260506000409 | 83 | 182 | 1.0 | 2.0 | 0.00 | 0.00 | 0.00 | 76 | 1004.3 |
| 20260505235906 | 83 | 176 | 3.0 | 3.0 | 0.00 | 0.00 | 0.00 | 76 | 1004.5 |
| 20260505235404 | 83 | 161 | 3.0 | 6.0 | 0.00 | 0.00 | 0.00 | 76 | 1004.4 |
| 20260505234900 | 83 | 130 | 1.0 | 2.0 | 0.00 | 0.00 | 0.00 | 76 | 1004.5 |
| 20260505234358 | 83 | 160 | 5.0 | 7.0 | 0.00 | 0.00 | 0.00 | 76 | 1004.4 |
| 20260505233854 | 83 | 177 | 4.0 | 5.0 | 0.00 | 0.00 | 0.00 | 75 | 1004.2 |
| 20260505233353 | 83 | 177 | 5.0 | 6.0 | 0.00 | 0.00 | 0.00 | 74 | 1004.3 |
| 20260505232850 | 83 | 167 | 1.0 | 2.0 | 0.00 | 0.00 | 0.00 | 74 | 1004.2 |
| 20260505232348 | 83 | 171 | 5.0 | 6.0 | 0.00 | 0.00 | 0.00 | 74 | 1004.3 |
| 20260505231844 | 83 | 189 | 1.0 | 3.0 | 0.00 | 0.00 | 0.00 | 74 | 1004.2 |
| 20260505231341 | 83 | 201 | 6.0 | 10.0 | 0.00 | 0.00 | 0.00 | 74 | 1004.3 |
| 20260505230840 | 83 | 170 | 5.0 | 6.0 | 0.00 | 0.00 | 0.00 | 74 | 1004.4 |
| 20260505230337 | 83 | 174 | 7.0 | 9.0 | 0.00 | 0.00 | 0.00 | 75 | 1004.0 |
| 20260505225833 | 83 | 199 | 3.0 | 7.0 | 0.00 | 0.00 | 0.00 | 74 | 1004.0 |
| 20260505225330 | 83 | 190 | 5.0 | 6.0 | 0.00 | 0.00 | 0.00 | 74 | 1004.1 |
| 20260505224825 | 83 | 164 | 5.0 | 6.0 | 0.00 | 0.00 | 0.00 | 74 | 1004.3 |
| 20260505224324 | 84 | 217 | 6.0 | 7.0 | 0.00 | 0.00 | 0.00 | 73 | 1004.2 |
| 20260505223820 | 84 | 153 | 4.0 | 6.0 | 0.00 | 0.00 | 0.00 | 73 | 1004.2 |
| 20260505223318 | 84 | 181 | 10.0 | 14.0 | 0.00 | 0.00 | 0.00 | 73 | 1003.9 |
| 20260505222813 | 84 | 178 | 4.0 | 6.0 | 0.00 | 0.00 | 0.00 | 73 | 1004.1 |
| 20260505222309 | 84 | 187 | 7.0 | 10.0 | 0.00 | 0.00 | 0.00 | 71 | 1004.2 |
| 20260505221807 | 84 | 176 | 5.0 | 6.0 | 0.00 | 0.00 | 0.00 | 72 | 1004.3 |
| 20260505221303 | 84 | 119 | 0.0 | 1.0 | 0.00 | 0.00 | 0.00 | 72 | 1004.1 |
| 20260505220800 | 84 | 199 | 5.0 | 6.0 | 0.00 | 0.00 | 0.00 | 72 | 1004.2 |
| 20260505220257 | 84 | 181 | 10.0 | 11.0 | 0.00 | 0.00 | 0.00 | 72 | 1004.3 |
| 20260505215755 | 84 | 164 | 12.0 | 14.0 | 0.00 | 0.00 | 0.00 | 72 | 1004.1 |
| 20260505215253 | 85 | 199 | 6.0 | 8.0 | 0.00 | 0.00 | 0.00 | 72 | 1004.5 |
| 20260505214750 | 84 | 124 | 2.0 | 6.0 | 0.00 | 0.00 | 0.00 | 74 | 1004.6 |
| 20260505214248 | 84 | 188 | 7.0 | 8.0 | 0.00 | 0.00 | 0.00 | 73 | 1004.8 |
| 20260505213745 | 85 | 172 | 7.0 | 10.0 | 0.00 | 0.00 | 0.00 | 71 | 1004.7 |
| 20260505213242 | 84 | 206 | 7.0 | 8.0 | 0.00 | 0.00 | 0.00 | 71 | 1004.8 |
| 20260505212738 | 83 | 172 | 6.0 | 7.0 | 0.00 | 0.00 | 0.00 | 72 | 1004.8 |
| 20260505212236 | 83 | 180 | 7.0 | 8.0 | 0.00 | 0.00 | 0.00 | 73 | 1005.0 |
| 20260505211732 | 83 | 168 | 5.0 | 6.0 | 0.00 | 0.00 | 0.00 | 72 | 1004.8 |
| 20260505211230 | 84 | 177 | 11.0 | 13.0 | 0.00 | 0.00 | 0.00 | 71 | 1005.1 |
| 20260505210726 | 83 | 187 | 4.0 | 6.0 | 0.00 | 0.00 | 0.00 | 73 | 1004.8 |
| 20260505210223 | 82 | 222 | 10.0 | 13.0 | 0.00 | 0.00 | 0.00 | 74 | 1004.9 |
| 20260505205720 | 83 | 200 | 6.0 | 9.0 | 0.00 | 0.00 | 0.00 | 74 | 1004.9 |
| 20260505205218 | 83 | 179 | 3.0 | 3.0 | 0.00 | 0.00 | 0.00 | 74 | 1004.9 |
| 20260505204714 | 82 | 186 | 5.0 | 6.0 | 0.00 | 0.00 | 0.00 | 75 | 1005.1 |
| 20260505204213 | 82 | 174 | 6.0 | 8.0 | 0.00 | 0.00 | 0.00 | 77 | 1005.4 |
| 20260505203710 | 82 | 194 | 5.0 | 14.0 | 0.00 | 0.00 | 0.00 | 76 | 1005.4 |
| 20260505203206 | 82 | 185 | 6.0 | 9.0 | 0.00 | 0.00 | 0.00 | 76 | 1005.6 |
| 20260505202702 | 82 | 199 | 6.0 | 7.0 | 0.00 | 0.00 | 0.00 | 76 | 1005.6 |
| 20260505202158 | 82 | 168 | 3.0 | 5.0 | 0.00 | 0.00 | 0.00 | 76 | 1005.6 |
| 20260505201655 | 81 | 197 | 9.0 | 13.0 | 0.00 | 0.00 | 0.00 | 76 | 1005.6 |
| 20260505201153 | 82 | 188 | 3.0 | 6.0 | 0.00 | 0.00 | 0.00 | 77 | 1005.7 |
| 20260505200651 | 81 | 204 | 9.0 | 10.0 | 0.00 | 0.00 | 0.00 | 77 | 1005.8 |
| 20260505200147 | 81 | 177 | 7.0 | 8.0 | 0.00 | 0.00 | 0.00 | 78 | 1005.8 |
| 20260505195643 | 81 | 200 | 2.0 | 3.0 | 0.00 | 0.00 | 0.00 | 77 | 1005.9 |
| 20260505195141 | 80 | 189 | 2.0 | 2.0 | 0.00 | 0.00 | 0.00 | 79 | 1006.2 |
| 20260505194638 | 80 | 173 | 4.0 | 7.0 | 0.00 | 0.00 | 0.00 | 79 | 1006.0 |
| 20260505194134 | 80 | 156 | 6.0 | 9.0 | 0.00 | 0.00 | 0.00 | 78 | 1006.2 |
| 20260505193630 | 80 | 210 | 5.0 | 6.0 | 0.00 | 0.00 | 0.00 | 78 | 1006.3 |
| 20260505193128 | 80 | 175 | 4.0 | 5.0 | 0.00 | 0.00 | 0.00 | 79 | 1006.2 |
| 20260505192626 | 80 | 204 | 7.0 | 8.0 | 0.00 | 0.00 | 0.00 | 79 | 1006.2 |
| 20260505192123 | 80 | 170 | 1.0 | 3.0 | 0.00 | 0.00 | 0.00 | 80 | 1006.3 |
| 20260505191622 | 80 | 189 | 7.0 | 8.0 | 0.00 | 0.00 | 0.00 | 79 | 1006.2 |
| 20260505191119 | 80 | 176 | 10.0 | 13.0 | 0.00 | 0.00 | 0.00 | 79 | 1006.4 |
| 20260505190615 | 80 | 200 | 6.0 | 8.0 | 0.00 | 0.00 | 0.00 | 79 | 1006.3 |
| 20260505190110 | 79 | 186 | 7.0 | 10.0 | 0.00 | 0.00 | 0.00 | 80 | 1006.4 |
| 20260505185607 | 80 | 182 | 5.0 | 6.0 | 0.00 | 0.00 | 0.00 | 80 | 1006.4 |
| 20260505185103 | 79 | 183 | 7.0 | 8.0 | 0.00 | 0.00 | 0.00 | 80 | 1006.5 |
| 20260505184600 | 79 | 168 | 3.0 | 6.0 | 0.00 | 0.00 | 0.00 | 81 | 1006.6 |
| 20260505184056 | 79 | 158 | 5.0 | 6.0 | 0.00 | 0.00 | 0.00 | 81 | 1006.6 |
| 20260505183553 | 79 | 213 | 7.0 | 11.0 | 0.00 | 0.00 | 0.00 | 81 | 1006.8 |
| 20260505183051 | 78 | 158 | 0.0 | 1.0 | 0.00 | 0.00 | 0.00 | 82 | 1006.8 |
| 20260505182547 | 78 | 164 | 5.0 | 6.0 | 0.00 | 0.00 | 0.00 | 82 | 1006.6 |
| 20260505182044 | 78 | 148 | 0.0 | 1.0 | 0.00 | 0.00 | 0.00 | 82 | 1006.9 |
| 20260505181540 | 78 | 167 | 2.0 | 3.0 | 0.00 | 0.00 | 0.00 | 83 | 1007.0 |
| 20260505181038 | 77 | 166 | 0.0 | 1.0 | 0.00 | 0.00 | 0.00 | 83 | 1006.8 |
| 20260505180533 | 77 | 175 | 4.0 | 5.0 | 0.00 | 0.00 | 0.00 | 83 | 1007.0 |
| 20260505180032 | 77 | 237 | 5.0 | 6.0 | 0.00 | 0.00 | 0.00 | 84 | 1007.1 |
| 20260505175526 | 77 | 171 | 3.0 | 5.0 | 0.00 | 0.00 | 0.00 | 84 | 1007.0 |
| 20260505175023 | 76 | 146 | 2.0 | 5.0 | 0.00 | 0.00 | 0.00 | 85 | 1007.1 |
| 20260505174520 | 76 | 161 | 1.0 | 1.0 | 0.00 | 0.00 | 0.00 | 85 | 1007.2 |
| 20260505174016 | 76 | 180 | 2.0 | 3.0 | 0.00 | 0.00 | 0.00 | 86 | 1007.0 |